Regional Weather Roundup
Issued by NWS Goodland, KS

Home | Current Version | Previous Version | Graphics & Text | Print | Product List | Glossary On
Versions: 1 2 3 4 5 6 7 8 9 10 11 12 13 14 15 16 17 18 19 20 21 22 23 24 25 26 27 28 29 30 31 32 33 34 35 36 37 38 39 40 41 42 43 44 45 46 47 48 49 50
000
ASUS43 KGLD 300108
RWRGLD

GOODLAND FORECAST AREA HOURLY WEATHER ROUNDUP
NATIONAL WEATHER SERVICE GOODLAND KS
700 PM MDT MON JUN 29 2015

...OFFICIAL OBSERVATIONS...

CITY           SKY/WX    TMP DP  RH WIND       PRES   REMARKS
GOODLAND KS    SUNNY     84  53  34 S13       30.08F
HILL CITY KS   SUNNY     93  52  24 NE8       29.98R
IMPERIAL NEB   SUNNY     87  57  35 SE3       30.05S
MCCOOK NEB     SUNNY     91  56  30 N7        29.99F
AKRON CO       MOSUNNY   79  56  45 N7        30.15F
BURLINGTON CO  SUNNY     80  54  40 S15       30.13S
LIMON CO       PTSUNNY   72  59  63 SE5       30.22R
$$

...UNOFFICIAL OBSERVATIONS...

CITY           SKY/WX    TMP DP  RH WIND       PRES   REMARKS
COLBY KS       LGT RAIN  81  57  44 W16G24    30.09R
GOVE KS          N/A     86  32  14 MISG        N/A
NORTON KS      SUNNY     88  50  27 NE8       29.98S
SHARON SPRINGS   N/A     83  61  46 SW7         N/A
KIT CARSON CO    N/A     87  53  31 MISG        N/A
YUMA CO          N/A     85  56  36 CALM        N/A
$$


USA.gov is the U.S. government's official web portal to all federal, state and local government web resources and services.